Regional Weather Roundup
Issued by NWS Grand Forks, ND

Home | Current Version | Previous Version | Text Only | Print | Product List | Glossary On
Versions: 1 2 3 4 5 6 7 8 9 10 11 12 13 14 15 16 17 18 19 20 21 22 23 24 25 26 27 28 29 30 31 32 33 34 35 36 37 38 39 40 41 42 43 44 45 46 47 48 49 50
000
ASUS43 KFGF 162131
RWRFGF
PRAIRIE TO PINES  WEATHER ROUNDUP
NATIONAL WEATHER SERVICE EASTERN NORTH DAKOTA/GRAND FORKS ND
400 PM CDT TUE SEP 16 2014

 **SATELLITE DATA USED TO AUGMENT SKY COVER AT AUTOMATED STATIONS**
 *****  WEATHER ACROSS EASTERN NORTH DAKOTA  *****

CITY           SKY/WX    TMP DP  RH WIND       PRES   REMARKS
GRAND FORKS    MOSUNNY   74  42  31 SW8       29.94F
GRAND FRKS AFB SUNNY     73  40  30 SW6       29.95F
GRAND FRKS NWS   N/A     72 N/A N/A SW5         N/A
DEVILS LAKE    SUNNY     72  39  30 SW6       29.93F
FARGO          SUNNY     71  40  32 S3        29.97F
WAHPETON ARPT  PTCLDY    68  37  32 SE6       29.98F
$$

 ***** WEATHER ACROSS CENTRAL AND WESTERN NORTH DAKOTA  *****

CITY           SKY/WX    TMP DP  RH WIND       PRES   REMARKS
BISMARCK       SUNNY     75  44  33 VRB3      29.94F
MINOT          SUNNY     72  42  34 CALM      29.93F
JAMESTOWN      SUNNY     69  46  43 S7        29.96F
MINOT AFB      SUNNY     71  45  39 E7        29.93F
GARRISON         N/A     71  45  39 S6        29.94F
WILLISTON      SUNNY     74  34  23 VRB6      29.94F
DICKINSON      SUNNY     74  47  38 N7        29.94F
HETTINGER      MOSUNNY   76  44  32 VRB6      29.95F
$$

 *****  OTHER AIRPORT OBSERVATIONS IN OUR AREA  *****

CITY           SKY/WX    TMP DP  RH WIND       PRES   REMARKS
WALHALLA         N/A     72  41  33 E6        29.92F
GRAFTON AIRPOR FAIR      73  41  31 W9        29.92F
VALLEY CITY AR FAIR      68  45  42 SE9       29.96F
CANDO          FAIR      72  37  28 S6        29.94F
CAVALIER APRT  FAIR      73  45  35 NE7       29.91F
GWINNER        CLEAR     73  48  40 S10       29.96F
ROLLA          FAIR      72  37  28 W7        29.95F
 ***** THE ABOVE OBSERVATIONS ARE NON NWS ARE NOT QUALITY
       CONTROLLED AND MAY MIS-REPORT RAIN FOR SNOW...
$$

  *****  WEATHER ACROSS NORTHERN MINNESOTA  *****

CITY           SKY/WX    TMP DP  RH WIND       PRES   REMARKS
FLAG ISLAND    MOSUNNY   61  52  72 S5        29.96F
WARROAD        PTSUNNY   57  48  72 CALM      29.98F
ROSEAU         PTSUNNY   61  48  63 NE3       29.97S
HALLOCK        SUNNY     73  41  31 E5        29.92F
THF RVR FALLS  SUNNY     72  43  35 W6        29.96F
BAUDETTE       CLOUDY    58  47  66 CALM      29.98F
WASKISH        PTSUNNY   66  50  55 CALM      29.97F
CROOKSTON      SUNNY     72  41  33 SW12      29.96F
STEPHEN NDAWN    N/A     73  45  35 SW8         N/A
GREENBUSH NDAW   N/A     68  46  45 NE3         N/A
$$
  *****  WEATHER ACROSS CENTRAL AND WEST MINNESOTA  *****

CITY           SKY/WX    TMP DP  RH WIND       PRES   REMARKS
FOSSTON        SUNNY     73  43  33 W5        29.99S
BEMIDJI        SUNNY     69  41  36 SW10      29.99F
PARK RAPIDS    SUNNY     68  36  30 S12G21    30.01F
ELBOW LAKE     FAIR      68  44  41 S8        30.00F
WADENA         NOT AVBL
DETROIT LAKES  SUNNY     68  37  32 S9        30.01F
MOORHEAD       SUNNY     72  28  20 SE7       29.98F
FERGUS FALLS   SUNNY     70  36  28 S9        29.99F
MORRIS MN      MOSUNNY   72  43  35 S8        30.00F
STAPLES        SUNNY     66  37  34 W7        30.03S
$$
  *****  WEATHER ELSEWHERE ACROSS MINNESOTA  *****

CITY           SKY/WX    TMP DP  RH WIND       PRES   REMARKS
DULUTH         MOSUNNY   69  41  36 W17       30.00F
INTRNTL FALLS  CLOUDY    59  49  69 W5        29.98F
ELY            CLOUDY    63  45  51 W7        29.97S
CLOQUET        SUNNY     66  36  32 SW14      30.01F
WHEATON        SUNNY     68  45  42 SE10      29.99F
BRAINERD       SUNNY     65  38  36 W8        30.03F
HIBBING        MOSUNNY   67  43  41 W7        29.99F
ALEXANDRIA     MOSUNNY   66  43  43 S8        30.04F
SAINT CLOUD    SUNNY     69  41  36 SW10      30.05F
MINNEAPOLIS    MOSUNNY   66  42  41 SW10      30.06F
$$

  *****  WEATHER ACROSS SOUTH DAKOTA  *****

CITY           SKY/WX    TMP DP  RH WIND       PRES   REMARKS
SIOUX FALLS    PTSUNNY   67  49  52 S17       30.03F
BROOKINGS      NOT AVBL
WATERTOWN      SUNNY     69  50  50 S14       29.99F
HURON          SUNNY     73  52  47 S18       29.95F
SISSETON         N/A     73  48  41 SW10G23   29.96F
ABERDEEN       SUNNY     70  51  51 S9        29.95F
MITCHELL       SUNNY     73  54  51 S15G23    29.97F
PIERRE         SUNNY     75  52  44 CALM      29.92F
MOBRIDGE       SUNNY     73  51  46 CALM      29.91F
RAPID CITY     MOSUNNY   80  44  27 SE6       29.97F
$$

  *****  SOME WEATHER IN NEARBY STATES *****

CITY           SKY/WX    TMP DP  RH WIND       PRES   REMARKS
GLASGOW MT     SUNNY     75  42  30 VRB6      29.93F
GREAT FALLS MT PTSUNNY   78  39  24 SW12      29.95F
CHEYENNE WY    MOSUNNY   81  28  14 NW20G28   30.17F
SCOTTSBLUFF NE SUNNY     87  47  24 W7        30.03F
OMAHA NE       MOSUNNY   68  49  50 S10       30.08F
DES MOINES IA  SUNNY     67  47  48 S8        30.10F
DAVENPORT IA   SUNNY     66  42  41 SW9       30.13F
CHICAGO IL     SUNNY     68  40  35 NW6       30.11F
EAU CLAIRE WI  SUNNY     66  40  38 S7        30.08F
LA CROSSE WI   SUNNY     68  42  38 W3        30.10F
$$

  *****  SOME NATIONAL WEATHER *****

CITY           SKY/WX    TMP DP  RH WIND       PRES   REMARKS
LA GUARDIA NY  PTSUNNY   67  57  70 S8        29.96S
RALEIGH NC     MOSUNNY   81  63  54 NE5       29.96F
ATLANTA GA     PTSUNNY   85  67  54 VRB6      29.99F
NEW ORLEANS LA LGT RAIN  79  74  84 SW9       29.99S
OKLAHOMA CITY  PTSUNNY   88  68  51 CALM      30.04F HX  91
ALBUQUERQUE NM CLOUDY    71  58  63 S7        30.23F
SALT LAKE CITY MOSUNNY   92  35  13 S10       30.02F
LOS ANGELES CA MOSUNNY   83  62  49 W10       29.74F
BOISE ID       SUNNY     90  46  21 NW7       29.91F
SEATTLE WA     PTSUNNY   71  54  54 VRB5      29.90F
$$

*** WEATHER ACROSS MANITOBA...SASKATCHEWAN AND ONTARIO ***
                ***ONTARIO***

CITY           SKY/WX    TMP DP  RH WIND       PRES   REMARKS
GERALDTON      PTSUNNY   45  36  70 N9        29.98R
THUNDER BAY    PTSUNNY   63  48  59 NW8       29.96S
SIOUX LOOKOUT  PTSUNNY   46  36  66 N6        30.02
TORONTO        PTSUNNY   63  41  45 NW12      30.04S
BIG TROUT LK   PTSUNNY   41  23  48 NW9       30.04S
PICKLE LAKE    MOSUNNY   45  23  42 N3        30.03S
DRYDEN         CLOUDY    52  43  71 NE9       30.00S
KENORA         CLOUDY    57  43  58 E5        29.99
$$
                *** MANITOBA***

CITY           SKY/WX    TMP DP  RH WIND       PRES   REMARKS
BRANDON        MOSUNNY   70  46  43 VRB2      29.93F
DAUPHIN        CLOUDY    57  50  77 E8        29.94F
ISLAND LAKE    CLOUDY    41  25  52 NE3       30.09S
PILOT MOUND      N/A     72  37  28 W6          N/A
THE PAS        LGT RAIN  36  34  93 E12G20    30.03R FOG
THOMPSON       PTSUNNY   41  19  42 CALM      30.10F
WINNIPEG       PTSUNNY   64  50  59 NE10      29.95F
LYNN LAKE      MOSUNNY   39  18  41 MISG      30.10F
CHURCHILL      PTSUNNY   36  23  60 NW25G31   30.07F
GILLAM         CLOUDY    39  25  56 NW13      30.10F
$$
                ***SASKATCHEWAN***

CITY           SKY/WX    TMP DP  RH WIND       PRES   REMARKS
ESTEVAN        MOSUNNY   73  41  31 W9        29.93F
KINDERSLEY     MOSUNNY   75  41  29 NW6       29.89
LLOYDMINSTER   MOSUNNY   75  41  29 NW9       29.87S
PRINCE ALBERT  PTSUNNY   63  50  63 SE5       29.89
REGINA         MOSUNNY   73  45  35 W5        29.90F
YORKTON        MOSUNNY   73  41  31 SW13G21   29.89S
N. BATTLEFORD  SUNNY     75  43  31 VRB6      29.88F
LA RONGE       CLOUDY    39  37  93 E13       30.01R
SASKATOON      MOSUNNY   77  43  29 W7        29.88
SWIFT CURRENT  SUNNY     75  39  27 S8        29.89F
$$
NOTE: THESE ARE AUTOMATED STATIONS WITH LIMITED QUALITY CONTROL
      "FAIR" INDICATES FEW OR NO CLOUDS BELOW 12,000 FEET WITH NO
      SIGNIFICANT WEATHER AND/OR OBSTRUCTIONS TO VISIBILITY.
      SKY/WX - SKY CONDITION AND SIGNIFICANT WEATHER.
      TMP - AIR TEMPERATURE.    DP   - DEWPOINT TEMPERATURE.
      RH  - RELATIVE HUMIDITY.  PRES - PRESSURE.
      HX  - HEAT INDEX.         WCI  - WIND CHILL INDEX.
$


USA.gov is the U.S. government's official web portal to all federal, state and local government web resources and services.